This is the latest recevied weather packets stored in our database for station/object SP1BMW-13. If no packets are shown the sender has not sent any weather packets the latest 10 day(s).
| Time | Temp. | Humidity | Pressure | Rain* | Wind** | Luminosity | Snow |
|---|---|---|---|---|---|---|---|
| 1787648257 | 21.11° C | 64% | 1019.5 hPa | 0 mm | 0.89 m/s, 107° | 504 W/m² | - |
| 1787648198 | 21.11° C | 65% | 1019.3 hPa | 0 mm | 1.34 m/s, 20° | 503 W/m² | - |
| 1787648138 | 21.11° C | 63% | 1019.4 hPa | 0 mm | 0.45 m/s, 43° | 501 W/m² | - |
| 1787648077 | 21.11° C | 64% | 1019.4 hPa | 0 mm | 1.34 m/s, 41° | 498 W/m² | - |
| 1787648017 | 21.67° C | 63% | 1019.5 hPa | 0 mm | 0 m/s | 497 W/m² | - |
| 1787647957 | 21.67° C | 62% | 1019.4 hPa | 0 mm | 2.68 m/s, 29° | 496 W/m² | - |
| 1787647897 | 21.67° C | 63% | 1019.2 hPa | 0 mm | 0.45 m/s, 35° | 495 W/m² | - |
| 1787647837 | 21.11° C | 63% | 1019.2 hPa | 0 mm | 0 m/s | 493 W/m² | - |
| 1787647776 | 21.11° C | 63% | 1019.4 hPa | 0 mm | 0.89 m/s, 54° | 490 W/m² | - |
| 1787647717 | 21.11° C | 66% | 1019.3 hPa | 0 mm | 0 m/s | 489 W/m² | - |
| 1787647658 | 21.11° C | 65% | 1019.4 hPa | 0 mm | 0 m/s | 488 W/m² | - |
| 1787647597 | 20.56° C | 66% | 1019.4 hPa | 0 mm | 0 m/s | 486 W/m² | - |
| 1787647536 | 20.56° C | 65% | 1019.3 hPa | 0 mm | 0.45 m/s, 136° | 484 W/m² | - |
| 1787647480 | 20.56° C | 65% | 1019.5 hPa | 0 mm | 0.45 m/s, 53° | 483 W/m² | - |
| 1787647418 | 20.56° C | 65% | 1019.3 hPa | 0 mm | 0.89 m/s, 26° | 481 W/m² | - |
| 1787647357 | 20.56° C | 66% | 1019.2 hPa | 0 mm | 0.89 m/s, 93° | 480 W/m² | - |
| 1787647297 | 20.56° C | 65% | 1019.3 hPa | 0 mm | 1.34 m/s, 32° | 477 W/m² | - |
| 1787647239 | 20° C | 67% | 1019.2 hPa | 0 mm | 0.45 m/s, 27° | 476 W/m² | - |
| 1787647178 | 20° C | 68% | 1019.5 hPa | 0 mm | 0.45 m/s, 46° | 473 W/m² | - |
| 1787647118 | 20° C | 67% | 1019 hPa | 0 mm | 0.45 m/s, 84° | 471 W/m² | - |
| 1787647057 | 20° C | 65% | 1019.1 hPa | 0 mm | 2.24 m/s, 26° | 469 W/m² | - |
| 1787646997 | 20° C | 66% | 1019.2 hPa | 0 mm | 0.89 m/s, 45° | 468 W/m² | - |
| 1787646938 | 20.56° C | 66% | 1019.2 hPa | 0 mm | 0.89 m/s, 51° | 465 W/m² | - |
| 1787646877 | 20.56° C | 66% | 1019.3 hPa | 0 mm | 2.24 m/s, 44° | 462 W/m² | - |
| 1787646817 | 20.56° C | 64% | 1019.1 hPa | 0 mm | 2.24 m/s, 44° | 459 W/m² | - |
* Rain latest hour (hover to see other rain measurements)
** Current wind speed in m/s (hover to see current wind gust speed)